SCP
0 0 0 0 0 0 0 0 0 0 0 0 0 0 0 0 0 0 0 0 0 0 0 0 1 1 1 1 1 1 1 1 0 0 0 0 0 0 0 0 0 0 0 0 0 0 0 0 0
0 0 0 0 0 0 0 0 0 0 0 0 0 0 0 0 0 0 0 0 0 0 0 0 1 1 1 1 1 1 1 1 0 0 0 0 0 0 0 0 0 0 0 0 0 0 0 0 0
0 0 0 0 0 0 0 0 0 0 0 0 0 0 0 0 0 0 0 0 0 0 0 1 1 1 1 1 1 1 1 1 0 0 0 0 0 0 0 0 0 0 0 0 0 0 0 0 0
0 0 0 0 0 0 0 0 0 0 0 0 0 0 0 0 0 0 0 0 0 0 0 1 1 1 1 1 1 1 1 1 1 1 0 0 0 0 0 0 0 0 0 0 0 0 0 0 0
0 0 0 0 0 0 0 0 0 0 0 0 0 0 0 0 0 0 0 0 0 0 0 1 1 1 1 1 1 1 1 1 1 1 1 0 0 0 0 0 0 0 0 0 0 0 0 0 0
0 0 0 0 0 0 0 0 0 0 0 0 0 0 0 0 0 0 0 0 0 0 0 1 1 1 1 1 1 1 1 1 1 1 1 1 0 0 0 0 0 0 0 0 0 0 0 0 0
0 0 0 0 0 0 0 0 0 0 0 0 0 0 0 0 0 0 0 0 0 0 1 1 1 1 1 1 1 1 1 1 1 1 1 1 0 0 0 0 0 0 0 0 0 0 0 0 0
0 0 0 0 0 0 0 0 0 0 0 0 0 0 0 0 0 0 0 0 0 0 1 1 1 1 1 1 1 1 1 1 1 1 1 0 0 0 0 0 0 0 0 0 0 0 0 0 0
0 0 0 0 0 0 0 0 0 0 0 0 0 0 0 0 0 0 0 0 0 0 0 1 1 2 1 1 1 1 1 1 0 0 0 0 0 0 0 0 0 0 0 0 0 0 0 0 0
0 0 0 0 0 0 0 0 0 0 0 0 0 0 0 0 0 0 0 0 0 0 0 0 1 1 1 1 1 1 1 0 0 0 0 0 0 0 0 0 0 0 0 0 0 0 0 0 0
0 0 0 0 0 0 0 0 0 0 0 0 0 0 0 0 0 0 0 0 0 0 0 0 0 0 0 1 1 1 1 0 0 0 0 0 0 0 0 0 0 0 0 0 0 0 0 0 0
0 0 0 0 0 0 0 0 0 0 0 0 0 0 0 0 0 0 0 0 0 0 0 0 0 0 0 0 1 1 1 0 0 0 0 0 0 0 0 0 0 0 0 0 0 0 0 0 0
0 0 0 0 0 0 0 0 0 0 0 0 0 0 0 0 0 0 0 0 0 0 0 0 0 0 0 0 0 0 0 0 0 0 0 0 0 0 0 0 0 0 0 0 0 0 0 0 0
0 0 0 0 0 0 0 0 0 0 0 0 0 0 0 0 0 0 0 0 0 0 0 0 0 0 0 0 0 0 0 0 0 0 0 0 0 0 0 0 0 0 0 0 0 0 0 0 0
0 0 0 0 0 0 0 0 0 0 0 0 0 0 0 0 0 0 0 0 0 0 0 0 0 0 0 0 0 0 0 0 0 0 0 0 0 0 0 0 0 0 0 0 0 0 0 0 0
0 0 0 0 0 0 0 0 0 0 0 0 0 0 0 0 0 0 0 0 0 0 0 0 0 0 0 0 0 0 0 0 0 0 0 0 0 0 0 0 0 0 0 0 0 0 0 0 0
0 0 0 0 0 0 0 0 0 0 0 0 0 0 0 0 0 0 0 0 0 0 0 0 0 0 0 0 0 0 0 0 0 0 0 0 0 0 0 0 0 0 0 0 0 0 0 0 0
0 0 0 0 0 0 0 0 0 0 0 0 0 0 0 0 0 0 0 0 0 0 0 0 0 0 0 0 0 0 0 0 0 0 0 0 0 0 0 0 0 0 0 0 0 0 0 0 0
0 0 0 0 0 0 0 0 0 0 0 0 0 0 0 0 0 0 0 0 0 0 0 0 0 0 0 0 0 0 0 0 0 0 0 0 0 0 0 0 0 0 0 0 0 0 0 0 0
0 0 0 0 0 0 0 0 0 0 0 0 0 0 0 0 0 0 0 0 0 0 0 0 0 0 0 0 0 0 0 0 0 0 0 0 0 0 0 0 0 0 0 0 0 0 0 0 0
0 0 0 0 0 0 0 0 0 0 0 0 0 0 0 0 0 0 0 0 0 0 0 0 0 0 0 0 0 0 0 0 0 0 0 0 0 0 0 0 0 0 0 0 0 0 0 0 0
0 0 0 0 0 0 0 0 0 0 0 0 0 0 0 0 0 0 0 0 0 0 0 0 0 0 0 0 0 0 0 0 0 0 0 0 0 0 0 0 0 0 0 0 0 0 0 0 0
-0 -0 0 0 0 0 0 0 0 0 0 0 0 0 0 0 0 0 0 0 0 0 0 0 0 0 0 0 0 0 0 0 0 0 0 0 0 0 0 0 0 0 0 0 0 0 0 0 0
-0 0 0 0 0 0 0 0 0 0 0 0 0 0 0 0 0 0 0 0 0 0 0 0 0 0 0 0 0 0 0 0 0 0 0 0 0 0 0 0 0 0 0 0 0 0 0 0 0
0 0 0 0 0 0 0 0 0 0 0 0 0 0 0 0 0 0 0 0 0 0 0 -0 0 0 0 0 0 0 0 0 0 0 0 0 0 0 0 0 0 0 0 0 0 0 0 0 0
0 0 0 0 0 0 0 0 0 0 0 0 0 0 0 0 0 0 0 0 0 0 0 0 0 0 0 0 0 0 0 0 0 0 0 0 0 0 0 0 0 0 0 0 0 0 0 0 0
0 0 0 0 0 0 0 0 0 0 0 0 0 0 0 0 0 0 0 0 0 0 0 0 0 0 0 0 0 0 0 0 0 0 0 0 0 0 0 0 0 0 0 0 0 0 0 0 0
0 0 0 0 0 0 0 0 0 0 0 0 0 0 0 0 0 0 0 0 0 0 0 0 0 0 0 0 0 0 0 0 0 0 0 0 0 0 0 0 0 0 0 0 0 0 0 0 0
0 0 0 0 0 0 0 0 0 0 0 0 0 0 0 0 0 0 0 0 0 0 0 0 0 0 0 0 0 0 0 0 0 0 0 0 0 0 0 0 0 0 0 0 0 0 0 0 0
0 0 0 0 0 0 0 0 0 0 0 0 0 0 0 0 0 0 0 0 0 0 0 0 0 0 0 0 0 0 0 0 0 0 0 0 0 0 0 0 0 0 0 0 0 0 0 0 0
Wind_Speed
7 4 2 4 6 4 2 4 2 1 1 1 1 4 6 4 3 4 1 4 6 7 6 7 9 9 10 10 10 9 9 9 9 9 9 9 9 9 10 10 10 9 10 11 11 11 11 11 11
3 2 4 5 5 2 4 4 3 3 3 1 2 4 5 2 2 4 2 3 7 8 6 6 8 8 9 9 9 9 9 8 8 9 9 9 9 9 9 9 9 10 10 10 10 10 10 10 10
3 2 4 4 3 5 4 3 5 3 1 0 2 3 3 2 2 2 2 5 7 6 5 6 9 8 8 9 9 8 8 8 8 8 8 8 9 9 8 9 9 10 10 10 9 9 9 9 9
3 4 5 3 4 6 5 3 2 1 2 2 3 3 2 1 1 1 3 7 7 5 5 6 9 8 7 8 8 8 8 7 7 8 8 8 8 9 9 9 9 10 10 9 9 8 8 8 8
4 4 3 1 5 4 3 3 1 1 1 1 2 3 1 3 2 4 5 6 7 5 5 6 8 8 7 7 7 7 7 7 7 7 7 7 8 8 8 9 8 9 9 9 9 8 8 8 8
4 4 3 4 6 4 3 2 1 1 1 1 2 3 1 2 3 3 4 4 5 6 5 5 7 7 7 7 6 6 6 6 6 7 7 6 7 8 8 8 8 8 9 9 8 8 8 8 7
4 4 4 4 3 3 3 1 1 1 1 2 2 3 0 2 0 2 3 4 4 4 4 4 4 5 6 6 5 5 5 5 6 6 6 6 6 7 8 8 7 8 8 8 8 7 7 7 7
4 4 2 3 3 4 2 1 0 1 2 1 3 5 3 4 1 2 3 4 4 4 3 3 3 3 3 4 5 4 4 5 5 5 5 5 5 6 7 7 7 7 8 8 7 7 7 6 6
3 3 3 4 3 2 2 2 3 1 2 2 2 2 3 3 2 4 3 3 3 3 2 2 2 2 2 3 3 4 4 4 4 4 5 4 2 3 4 5 6 7 7 7 7 7 7 6 5
3 3 5 2 2 1 3 2 2 2 2 2 3 3 2 4 4 4 3 3 2 2 2 2 2 2 2 2 2 2 2 2 2 2 3 2 2 2 3 5 6 6 6 6 7 6 5 4 2
3 4 3 2 2 2 3 3 2 1 1 3 3 2 2 3 3 3 3 4 4 3 2 2 2 2 2 2 2 1 1 1 1 2 2 2 2 2 2 2 2 3 4 3 3 3 2 2 1
1 2 2 2 1 2 2 3 2 1 4 3 3 5 4 4 4 5 5 4 3 3 2 2 2 2 2 2 2 2 2 1 1 2 3 2 2 2 2 2 1 1 2 2 2 1 2 2 1
1 2 2 1 1 2 2 2 2 4 3 1 2 3 3 4 4 3 3 3 3 3 2 2 2 2 2 2 2 2 2 2 2 2 2 2 2 2 2 2 2 2 2 2 2 2 2 2 1
1 1 3 2 2 2 2 5 2 6 3 0 2 2 3 4 4 3 2 3 3 3 3 3 3 2 2 2 2 2 2 2 2 2 2 3 2 2 2 2 2 2 2 2 2 3 2 2 2
0 2 4 2 2 2 1 5 4 5 2 1 2 3 2 3 4 4 4 4 4 4 3 3 3 3 2 2 2 1 2 2 2 2 2 3 3 3 2 2 2 2 2 2 2 3 3 2 2
2 2 3 4 1 1 2 8 6 4 1 3 3 3 3 4 4 3 2 2 3 3 3 3 2 3 2 2 2 1 1 2 2 2 3 3 3 3 2 2 2 2 2 2 2 3 3 2 2
1 1 4 5 2 1 2 7 7 3 2 4 4 3 4 4 4 3 2 2 3 3 3 3 3 3 2 2 2 1 1 1 1 2 2 3 3 3 3 2 2 2 2 2 2 2 2 2 2
3 3 4 5 3 1 3 8 9 4 3 5 4 4 4 4 5 3 2 2 2 2 2 3 3 3 2 2 2 1 1 1 0 1 2 4 3 3 3 2 2 2 2 2 2 2 2 2 2
3 3 5 6 4 2 5 9 10 6 4 5 5 4 5 5 4 2 1 1 1 1 2 2 3 2 2 2 2 2 2 1 1 1 2 3 4 4 3 3 3 2 2 2 3 2 3 2 2
2 3 5 6 3 2 5 9 9 6 5 6 6 5 5 3 3 2 1 0 1 2 2 2 3 3 3 2 3 2 2 2 2 1 2 3 3 4 4 4 3 3 2 3 3 2 2 2 2
4 4 4 5 6 3 3 8 7 6 4 4 4 4 3 3 3 2 2 2 2 2 2 2 3 3 3 2 2 2 2 1 0 0 1 1 2 3 3 4 3 3 3 3 3 3 3 3 2
4 4 4 3 2 4 1 6 8 5 5 5 5 4 3 3 3 3 3 2 3 3 3 2 3 3 2 3 3 4 3 2 2 2 1 1 2 3 3 4 3 3 3 3 3 2 2 3 3
4 2 1 2 2 3 2 3 9 4 5 7 6 4 4 4 3 3 3 3 3 2 2 2 2 2 2 3 4 5 3 2 1 1 2 1 1 1 2 3 3 3 3 3 3 2 2 2 3
1 2 3 3 3 3 5 4 8 4 5 6 5 4 4 3 2 2 2 0 0 0 0 1 1 1 2 2 3 4 4 3 3 2 3 2 1 1 2 3 3 3 3 3 3 3 3 2 1
3 4 3 4 2 6 2 4 9 6 5 4 4 4 3 2 2 1 1 1 0 0 0 0 1 1 1 2 2 3 4 4 5 4 4 3 2 1 2 2 3 3 2 2 2 2 2 2 2
3 6 6 5 5 5 2 6 7 5 4 3 2 2 3 2 2 2 2 2 1 1 1 1 1 1 1 1 2 2 3 3 3 3 3 3 2 2 2 2 2 2 2 2 2 2 1 1 2
3 3 4 4 1 3 6 6 7 3 4 4 4 3 4 3 3 2 2 1 1 1 1 1 1 1 1 1 1 1 2 3 3 3 2 2 2 2 2 2 2 2 2 2 2 2 2 1 1
3 4 3 3 3 5 5 5 5 4 4 4 4 3 4 4 4 3 2 1 1 1 1 0 0 1 1 1 1 1 1 2 2 3 2 2 1 1 2 2 1 2 2 2 2 2 2 2 1
2 2 2 3 3 4 4 7 4 4 3 3 3 3 3 3 4 3 2 1 1 1 0 0 0 1 0 0 0 0 0 1 2 2 2 2 2 2 2 2 2 2 2 3 2 2 2 2 1
3 4 4 4 4 4 3 8 4 3 2 2 3 3 3 3 3 3 2 2 1 1 1 1 1 1 1 0 0 0 0 1 2 2 2 2 2 2 2 2 2 2 2 2 3 3 3 3 2
Wind_Direction
331 340 55 58 59 57 239 249 235 298 313 266 72 102 118 121 134 157 174 135 129 135 143 143 140 136 132 129 125 122 122 123 121 121 120 117 114 114 114 110 106 103 102 98 94 93 93 93 91
341 7 56 64 98 164 256 247 233 234 219 197 51 80 85 84 76 109 109 148 137 136 139 140 135 134 133 131 128 127 124 122 125 127 125 124 120 117 117 116 111 108 104 100 97 96 95 95 93
343 60 83 83 137 190 220 233 216 250 288 97 57 49 98 126 120 145 177 145 131 133 139 145 136 132 134 133 131 128 127 126 124 128 129 129 127 122 118 116 113 110 107 104 102 99 98 98 93
53 50 61 92 210 223 214 238 240 296 354 32 104 62 51 28 147 164 130 130 128 133 139 145 140 137 132 134 133 132 131 130 130 127 131 133 132 126 121 116 114 113 112 111 109 106 102 97 92
63 81 86 210 237 245 242 265 277 293 281 341 101 110 44 345 39 89 102 122 132 135 140 148 144 142 134 133 136 134 136 134 132 130 129 133 135 132 125 120 117 117 117 116 113 109 104 98 91
64 79 124 219 240 257 273 281 282 301 282 322 100 119 177 352 72 92 103 119 133 139 137 146 149 143 141 137 137 136 136 136 135 133 132 130 133 137 132 126 123 124 122 118 114 110 106 100 94
109 117 178 210 235 260 270 305 179 222 257 251 132 114 213 308 336 115 108 105 105 125 128 135 151 150 146 140 136 141 139 134 132 133 133 129 129 135 139 135 133 130 127 122 120 118 111 104 95
127 116 190 226 224 249 298 348 82 178 231 318 92 133 204 251 250 89 86 96 97 96 112 125 134 141 147 153 139 130 133 136 132 129 123 121 129 132 138 140 137 134 131 128 126 123 115 103 96
91 96 209 221 206 248 330 352 334 330 86 36 43 159 214 157 104 91 75 62 90 89 84 107 119 126 138 148 140 133 127 129 129 130 117 112 119 124 128 136 136 134 135 132 129 124 116 101 88
101 173 222 237 208 275 332 336 320 8 24 23 5 8 73 110 118 130 140 145 142 136 124 110 126 131 136 136 128 135 122 124 129 137 134 127 121 123 122 128 134 133 128 127 125 122 112 91 73
149 193 219 275 302 330 332 327 343 114 272 235 217 180 131 131 150 167 179 178 180 174 151 139 135 139 141 141 133 126 119 119 125 134 129 125 120 116 117 118 129 133 122 113 107 100 89 86 84
181 251 216 249 321 339 319 319 332 249 234 234 198 165 160 170 187 190 196 198 182 167 169 154 143 148 143 145 150 141 139 142 147 157 141 136 136 137 143 143 142 135 129 122 108 107 104 95 92
233 271 296 291 351 336 333 303 283 278 273 264 137 138 182 200 214 214 208 200 178 176 185 181 158 162 159 148 163 152 159 161 163 163 156 146 149 156 156 155 151 140 137 137 134 131 123 117 105
230 279 301 298 304 287 283 293 289 271 281 21 158 192 207 217 223 222 209 199 195 192 192 185 166 166 161 152 161 175 172 163 166 172 166 153 149 151 154 154 157 155 155 152 149 143 131 130 115
36 347 320 284 241 255 338 303 255 263 280 275 249 234 232 236 236 226 213 199 196 196 186 174 176 161 166 165 169 165 177 164 170 178 168 155 144 146 143 150 154 161 151 144 134 124 114 113 103
35 26 302 294 227 225 141 271 283 281 264 274 274 269 258 253 245 244 227 200 197 183 180 183 174 159 163 165 171 170 172 164 173 180 170 159 150 144 143 148 161 161 147 139 143 131 122 109 104
24 264 261 289 262 191 177 262 283 276 243 262 271 268 268 273 273 261 231 205 201 189 181 178 170 161 168 173 163 156 157 161 181 183 172 162 154 149 146 152 155 155 146 141 150 137 136 130 114
226 241 256 264 277 235 240 260 281 285 244 249 256 263 266 266 262 251 231 207 198 188 181 173 169 165 160 157 129 106 125 148 154 193 180 159 159 152 146 147 151 144 144 141 140 145 131 134 134
198 221 259 267 271 255 252 266 276 279 271 263 263 262 260 258 271 276 248 188 163 179 182 184 170 167 156 163 158 177 199 193 183 215 185 162 159 157 152 148 154 149 152 160 148 147 139 139 133
244 267 276 290 315 289 278 280 276 263 247 245 248 254 254 273 316 316 310 265 206 193 203 202 189 180 185 190 185 182 175 184 184 189 188 169 162 162 163 159 161 158 147 151 154 145 156 168 170
246 224 245 273 318 323 306 300 290 290 268 271 265 253 253 235 241 254 256 238 230 212 210 215 203 189 191 187 154 118 101 83 91 215 194 177 166 162 167 168 162 161 160 172 181 176 173 178 199
249 231 233 269 310 294 296 289 289 291 300 288 279 271 259 252 250 250 241 237 231 223 216 212 205 189 186 173 167 167 170 182 207 203 196 182 175 170 166 162 161 163 165 173 185 192 178 172 188
217 258 251 255 231 292 273 243 284 315 299 287 276 268 256 249 243 249 240 229 227 216 209 207 187 181 188 182 177 173 173 178 165 166 170 174 187 178 171 163 164 167 169 178 184 179 174 178 191
158 30 22 36 71 272 234 200 279 270 268 291 282 273 264 259 249 254 268 284 306 5 83 137 163 192 197 184 182 179 174 170 161 179 177 179 192 186 180 167 167 170 172 181 188 184 173 185 181
87 86 24 355 338 253 243 211 252 261 270 263 267 283 279 272 260 272 301 350 344 349 295 107 171 216 219 189 194 188 182 179 182 187 182 180 186 202 199 185 172 174 175 172 171 172 175 176 178
185 150 164 203 232 275 281 235 253 275 294 294 290 307 314 310 289 249 232 212 201 223 255 235 222 232 229 208 219 193 181 181 186 189 177 184 193 195 186 190 178 172 167 160 160 165 175 169 172
158 192 175 151 212 270 265 276 290 317 344 350 355 356 337 323 317 286 263 236 211 226 238 230 224 230 231 228 229 206 193 179 180 176 163 169 181 181 165 168 174 168 162 159 159 160 166 154 167
160 148 113 141 189 253 275 264 257 283 306 330 342 332 324 328 330 320 295 285 262 246 266 294 214 215 224 206 217 207 209 177 164 156 159 156 165 171 155 153 167 167 159 154 154 150 151 143 160
145 149 157 162 182 193 259 268 235 226 255 284 296 307 310 315 318 317 309 304 313 359 7 16 18 26 345 219 215 163 210 144 138 146 162 166 166 167 164 164 166 173 169 160 156 160 155 148 156
178 180 157 175 233 207 226 268 276 250 273 284 290 305 312 317 324 332 338 347 3 0 349 351 351 14 320 270 118 117 91 99 137 154 171 167 162 172 164 155 162 171 178 169 164 169 170 169 177